Theta_e
303 305 307 308 317 319 323 326 322 321 320 319 318 321 322 323 329 324 323 335 336 339 343 343 343 342 341 341 340 340 339 340 340 337 336 335 335 334 334 332 333 336 338 337 334 333 331 328 323
303 304 308 306 311 315 316 318 321 320 316 313 314 321 320 324 320 318 318 333 338 338 342 342 343 342 340 340 340 340 339 340 340 340 336 335 334 333 337 335 335 334 334 333 331 331 330 324 324
303 304 306 308 310 308 305 312 315 314 309 309 316 317 317 317 313 314 320 329 338 340 343 341 342 342 341 340 339 340 340 339 340 340 339 337 336 335 335 334 332 333 333 332 330 330 333 333 332
302 301 300 312 312 310 308 307 307 306 306 312 313 318 311 309 311 313 316 320 335 341 343 343 342 343 341 340 339 339 339 339 339 339 338 337 337 333 332 330 329 334 332 331 330 332 333 333 334
301 298 305 307 308 309 308 306 304 307 309 309 308 316 311 309 307 309 311 313 313 322 335 342 342 341 340 340 340 339 337 339 338 338 336 336 334 332 332 328 331 333 331 330 332 333 334 333 332
297 297 301 303 304 305 303 301 303 306 308 307 306 311 309 305 304 305 306 309 311 310 312 325 334 339 340 339 339 339 338 337 337 337 336 334 333 332 330 327 332 334 332 329 332 333 333 332 332
297 296 298 300 300 299 301 299 302 304 306 307 305 309 308 305 303 304 305 305 306 307 307 307 309 316 331 339 338 339 339 338 337 336 336 335 333 331 328 329 333 335 330 331 331 333 333 331 330
296 297 299 297 298 299 299 298 300 302 304 304 304 305 307 304 302 303 303 302 303 303 304 305 307 308 310 322 334 337 338 338 337 336 336 334 332 330 330 332 334 333 330 330 333 332 331 330 329
298 298 297 298 299 299 298 298 298 297 299 298 300 302 300 300 301 301 302 302 302 302 302 302 304 305 306 307 313 331 337 338 337 336 335 335 332 333 332 332 333 332 332 331 332 332 330 328 325
299 297 298 298 299 299 299 299 298 298 297 299 298 299 299 300 299 299 300 300 301 301 301 302 302 302 304 305 306 317 331 335 337 336 335 336 334 333 332 331 329 332 331 330 329 329 329 328 324
299 298 299 299 299 299 299 298 297 298 298 299 297 297 297 298 299 298 299 300 301 301 301 301 301 301 303 306 305 306 322 330 333 336 334 335 335 334 332 330 328 330 330 329 328 326 327 326 325
299 299 299 299 300 300 299 298 298 297 297 297 296 296 296 297 297 298 299 299 301 301 301 301 301 302 303 305 304 304 307 320 330 334 334 335 335 335 333 330 328 329 328 327 326 326 326 326 326
299 299 300 300 299 299 299 299 298 298 298 297 297 298 297 298 298 299 301 301 301 301 301 301 301 301 305 304 303 303 305 314 327 330 334 334 335 334 333 329 328 327 327 327 326 325 325 326 327
299 300 300 300 299 299 300 299 298 298 297 297 296 296 297 297 297 298 299 299 300 301 302 302 301 304 304 303 303 303 305 308 320 328 332 334 334 333 332 328 326 325 326 327 326 326 326 326 327
300 300 300 300 300 300 299 300 300 299 300 295 292 292 293 293 294 294 294 295 297 299 301 301 301 303 304 303 302 303 304 308 314 319 327 333 333 332 331 329 327 326 326 326 326 326 326 326 326
300 301 302 300 299 299 298 299 299 296 297 292 290 289 290 291 291 292 292 293 294 297 299 301 301 302 303 304 303 304 304 306 310 320 327 328 331 332 330 329 327 326 325 325 325 326 326 326 326
299 300 300 300 299 299 298 299 300 295 292 290 289 288 289 289 290 290 291 293 295 295 299 300 302 302 303 304 303 303 304 304 307 316 325 329 327 326 330 328 326 327 325 324 324 326 326 327 327
299 299 300 298 297 298 300 297 297 291 291 289 288 288 288 288 289 290 292 296 297 296 297 300 301 302 302 303 303 303 305 305 304 311 325 329 330 329 329 328 328 325 324 324 324 324 325 326 327
297 298 297 296 298 296 297 297 294 292 288 288 288 288 287 287 288 290 293 298 295 296 297 299 301 301 302 302 302 304 305 307 312 322 326 330 330 330 329 328 326 326 325 324 324 324 325 327 326
297 297 296 296 295 296 297 295 293 291 290 287 287 287 287 287 288 290 294 296 296 294 295 297 299 301 302 302 303 304 307 316 318 325 327 330 330 329 328 325 326 326 325 324 324 324 325 325 324
295 296 295 294 296 297 297 294 292 291 290 287 286 286 286 286 288 290 293 295 299 300 296 296 302 305 303 303 304 305 311 318 322 327 329 330 328 327 328 325 326 325 325 324 323 323 323 323 323
288 295 293 294 292 295 295 293 293 289 289 286 285 285 285 285 287 290 291 293 295 299 300 306 306 308 307 306 307 309 315 319 322 326 327 328 327 327 327 325 324 325 324 324 323 323 322 323 322
292 293 293 295 292 291 299 293 293 288 287 285 284 284 284 285 286 289 289 291 293 294 296 301 301 302 305 306 310 317 316 319 322 320 322 321 323 324 325 324 324 324 323 322 323 322 321 321 318
292 291 296 299 291 286 294 292 291 286 285 283 282 282 283 284 285 287 287 288 291 290 291 294 296 297 300 303 307 316 318 314 311 306 309 310 314 315 318 319 322 320 319 317 315 313 313 310 307
291 290 290 292 288 290 295 293 287 285 284 282 281 280 282 282 284 286 286 287 289 289 289 291 291 293 294 295 299 303 305 304 300 298 297 297 299 299 301 309 311 310 308 309 308 304 301 298 296
292 290 291 294 292 293 296 292 289 285 282 280 279 280 280 281 282 284 285 285 286 287 287 287 288 288 289 291 292 295 296 294 293 292 292 290 291 290 292 293 298 297 294 296 295 295 291 290 289
292 293 291 290 290 290 293 293 288 287 282 278 277 279 280 281 281 283 283 284 284 285 285 285 286 286 286 287 287 288 289 289 288 288 288 287 288 288 290 290 290 289 289 289 289 288 286 286 285
292 291 294 293 293 294 295 291 285 281 279 278 277 279 279 280 280 282 282 282 282 283 283 283 284 283 283 284 285 285 285 285 284 284 284 284 285 286 288 287 288 288 288 287 287 284 282 282 280
291 291 291 292 293 295 295 295 278 278 277 277 278 278 279 280 280 281 281 281 281 281 282 282 282 282 282 282 283 283 282 282 282 282 282 282 283 284 283 283 285 284 282 281 281 279 278 278 278
290 288 289 290 293 294 293 293 284 279 277 278 278 278 278 280 280 281 280 280 280 280 281 281 281 281 281 281 281 281 280 280 280 279 279 280 280 280 279 279 279 279 279 278 278 278 277 277 276
Wind_Speed
16 12 4 3 2 2 4 7 4 5 3 3 6 6 5 2 1 4 6 16 11 2 11 21 23 22 22 23 23 22 23 24 24 25 24 23 24 24 24 25 26 25 20 18 18 18 19 18 17
18 8 2 2 4 3 5 6 8 15 4 12 7 5 1 3 3 4 5 14 13 2 11 20 23 23 23 23 23 23 23 25 22 22 23 22 22 23 22 24 25 22 19 19 19 18 19 20 22
11 4 3 4 5 10 5 5 15 7 9 7 5 6 4 2 4 3 11 11 12 7 9 16 20 21 23 24 25 24 23 23 24 21 21 21 22 22 22 23 22 21 20 20 19 19 20 20 20
8 6 4 2 11 5 3 6 4 8 8 4 2 6 4 13 3 6 12 18 16 16 7 16 16 19 21 22 25 28 27 24 24 23 22 23 22 24 24 24 22 22 21 20 21 20 19 19 19
4 3 1 4 6 5 7 8 4 4 6 5 9 5 5 2 14 16 17 18 21 19 15 3 7 11 14 17 23 26 28 28 26 24 24 24 25 25 25 24 24 24 23 22 21 20 19 20 20
3 3 0 5 9 8 7 6 7 4 3 5 4 2 4 10 13 9 11 15 15 19 18 14 7 5 11 12 18 26 29 30 29 28 26 25 26 28 27 27 25 25 23 25 22 20 19 19 19
5 4 6 5 6 5 5 9 5 7 3 4 2 2 3 3 11 4 9 11 11 11 13 16 16 10 9 12 15 20 28 30 30 29 28 28 28 28 28 28 27 26 24 25 25 22 20 19 18
4 3 3 5 4 7 1 8 6 6 5 2 1 4 4 1 9 7 8 11 10 10 10 13 13 15 14 11 11 16 25 31 32 32 31 29 29 28 28 27 25 28 27 27 25 23 21 19 18
3 1 3 4 4 3 4 6 7 7 4 6 4 2 5 11 15 14 12 12 11 11 10 11 12 16 15 14 13 11 20 30 34 34 33 31 31 31 29 29 27 27 26 24 23 21 19 19 18
3 3 6 5 2 4 3 2 5 5 8 5 7 16 18 18 12 8 10 11 14 14 11 10 13 16 18 17 15 13 10 18 28 36 36 35 35 34 32 30 29 28 26 23 22 18 17 19 19
4 4 4 7 5 5 5 5 3 3 4 1 8 10 12 17 15 2 2 6 9 17 18 16 16 14 15 16 14 14 14 13 17 37 37 37 36 35 32 31 30 30 27 25 23 21 19 20 20
6 6 5 5 6 7 8 5 6 7 7 8 11 10 6 8 8 13 18 11 16 17 19 17 15 13 14 11 12 11 14 12 11 27 38 39 38 37 36 34 33 31 29 29 26 24 22 21 20
4 4 8 10 8 10 12 9 10 10 14 10 11 9 10 9 8 12 16 19 17 15 16 15 13 14 9 9 13 14 11 12 12 9 34 39 38 38 38 36 36 34 30 31 30 28 25 23 21
5 10 13 12 12 10 8 11 3 10 7 9 14 15 13 12 16 16 20 22 23 20 19 16 14 7 8 10 15 18 15 11 13 20 15 38 39 39 38 37 37 35 34 33 31 31 27 24 23
7 9 8 5 2 5 12 7 8 14 15 12 13 14 15 17 22 18 23 23 24 27 23 16 11 9 11 9 17 20 18 13 12 11 23 16 36 36 40 40 39 36 36 30 29 27 27 25 23
5 2 4 4 12 2 9 7 9 18 11 13 15 15 15 15 18 22 26 27 29 26 21 14 11 9 10 11 18 19 19 17 16 14 14 24 24 36 31 37 39 38 36 35 30 28 28 26 26
2 7 15 10 11 8 5 11 7 13 14 12 13 14 14 17 20 28 29 28 28 25 23 17 8 6 8 11 18 20 19 20 20 18 17 23 29 26 36 27 33 39 40 38 34 26 26 24 25
16 13 9 16 10 11 8 9 12 14 13 11 12 13 14 16 17 28 32 30 27 21 18 10 11 11 10 12 20 22 21 21 21 22 20 21 22 26 38 30 29 32 25 31 34 28 22 22 25
10 13 14 14 7 15 4 6 9 9 14 15 16 16 16 18 21 27 29 28 23 18 17 16 16 15 13 16 18 22 20 20 20 21 19 23 24 30 32 30 32 33 30 26 32 27 25 22 19
12 13 7 10 12 7 8 10 9 9 13 12 13 15 16 18 20 25 30 29 25 21 18 18 19 20 16 16 17 19 20 16 17 19 19 26 28 32 33 27 26 27 28 30 28 24 18 10 20
14 4 10 11 7 3 8 2 5 9 9 15 15 15 16 18 19 20 24 28 28 21 18 20 21 18 14 16 15 19 19 17 15 14 18 24 32 30 33 19 26 30 30 30 29 26 22 11 19
4 3 17 15 2 4 2 3 5 12 9 16 18 18 18 19 20 18 21 26 28 27 16 13 15 16 16 15 16 21 19 14 12 6 16 16 26 32 31 26 23 24 23 30 28 26 22 19 15
8 19 12 5 3 2 4 3 2 9 12 20 19 20 19 19 18 17 19 24 25 28 28 24 21 19 17 18 16 21 22 16 5 7 22 21 22 23 26 26 25 27 24 20 21 18 18 16 12
12 5 2 2 2 4 7 2 3 5 9 15 18 19 21 20 20 18 23 24 25 29 30 28 26 22 17 14 9 7 10 10 15 15 23 23 22 20 21 26 28 23 21 20 20 18 17 17 18
9 6 4 5 5 4 4 4 4 4 7 9 15 18 18 18 17 17 19 23 26 28 27 24 24 23 23 19 12 11 16 19 21 18 22 25 26 25 23 28 30 27 24 24 25 25 25 24 25
5 3 3 3 3 5 5 4 4 4 4 9 11 12 16 17 16 16 19 22 23 24 24 22 21 21 24 23 20 19 22 26 27 26 28 30 32 30 28 33 35 32 31 33 34 34 34 33 34
5 2 1 2 3 2 2 1 3 12 18 15 15 17 16 17 16 16 20 23 23 23 24 22 20 23 26 25 23 24 29 32 33 32 36 36 35 36 38 41 42 40 40 41 43 43 40 39 38
4 3 1 1 4 3 3 4 4 13 18 16 16 16 17 16 16 14 17 21 22 22 23 25 25 27 26 27 24 24 30 37 35 39 42 40 41 44 48 48 50 48 48 46 46 44 38 39 38
3 3 3 3 2 2 4 4 4 5 8 12 13 14 14 14 14 12 15 17 19 22 23 24 26 27 29 31 25 23 31 40 38 45 44 44 46 48 47 46 50 48 46 44 46 42 37 39 35
4 2 1 1 4 2 1 4 1 2 4 8 12 14 12 13 11 9 13 15 19 22 23 25 28 29 29 30 25 23 33 38 45 45 43 43 47 46 45 48 48 47 46 43 43 41 35 35 34
Wind_Direction
344 345 329 64 82 67 239 243 281 280 278 214 318 259 217 60 305 194 119 28 16 208 189 188 185 188 187 185 174 173 171 170 163 163 164 167 170 170 168 168 166 157 154 158 159 158 157 159 160
344 359 68 86 131 197 242 222 221 240 277 321 267 248 183 104 28 104 72 19 37 92 194 189 188 191 188 193 184 178 177 178 173 170 169 170 171 168 164 165 164 159 158 162 160 159 158 160 158
5 39 93 157 193 218 220 206 223 270 303 282 296 32 57 25 7 75 41 40 42 87 186 196 195 196 194 195 194 187 187 185 182 177 173 174 172 169 168 170 171 162 160 161 161 159 159 160 164
359 18 16 204 240 280 236 290 313 298 295 234 235 88 63 359 62 73 52 54 53 55 144 203 210 202 201 207 202 199 192 192 192 187 180 175 174 176 177 176 175 167 164 165 163 163 167 163 160
45 66 240 251 258 255 275 291 321 299 294 310 323 134 115 20 87 76 65 55 52 50 48 142 195 206 223 227 221 212 208 197 196 195 189 181 179 180 181 180 176 172 169 169 169 168 168 167 162
22 81 174 246 261 282 301 298 315 277 244 295 9 51 154 108 47 50 55 71 54 47 45 45 23 273 253 247 233 229 217 212 203 196 196 188 185 185 185 182 183 179 177 171 175 173 173 167 165
149 117 217 243 249 282 284 323 271 256 243 247 193 137 198 187 14 75 83 77 65 41 33 28 22 11 349 267 251 237 228 218 210 202 197 193 192 190 189 186 186 184 180 178 180 179 174 172 170
124 120 239 228 210 277 35 325 356 15 281 304 211 199 183 301 40 100 85 67 59 49 16 12 6 3 1 343 305 264 244 225 213 207 201 195 193 193 195 191 187 183 183 186 185 183 180 177 172
118 46 245 253 211 279 357 17 324 308 330 326 349 133 49 4 351 9 13 6 5 17 19 359 354 346 343 343 338 309 250 233 221 211 206 198 195 196 200 196 189 187 190 188 183 182 183 184 181
138 151 236 223 358 299 287 337 290 335 330 301 335 327 325 333 356 15 356 348 347 348 357 356 341 331 326 328 334 315 294 250 235 215 208 202 199 199 201 200 199 195 196 193 186 186 185 189 186
326 226 247 298 314 1 316 299 295 294 296 301 308 299 310 322 326 216 275 311 329 318 314 322 329 321 315 313 320 327 290 282 269 224 211 206 201 201 200 201 201 197 196 196 191 196 198 192 191
332 282 304 287 326 321 306 278 285 218 251 257 261 256 248 276 288 305 310 274 298 304 306 312 316 301 304 297 307 307 299 286 281 239 216 208 204 202 199 199 196 194 197 195 197 199 204 199 195
245 287 311 308 308 299 293 286 268 290 275 297 291 286 282 289 274 272 285 298 297 290 298 304 300 293 282 289 299 291 288 292 277 298 218 213 205 203 198 197 195 193 196 198 199 200 201 204 200
304 306 301 298 299 292 288 292 14 279 313 337 15 6 353 1 349 342 339 321 311 285 283 279 286 254 260 288 295 286 274 283 269 255 244 205 206 204 197 194 194 195 199 203 204 201 202 203 204
268 294 298 292 338 296 24 333 311 338 329 33 11 13 0 2 359 1 353 348 343 334 287 266 264 251 254 273 293 284 274 264 277 282 246 207 212 201 199 195 193 196 198 202 205 206 206 206 206
302 291 309 343 316 320 360 285 12 3 35 20 9 0 352 352 345 346 343 337 334 337 323 249 250 262 265 263 289 286 277 263 255 263 251 238 223 206 202 195 197 196 195 202 205 209 207 210 206
274 305 299 309 335 316 304 295 7 10 25 16 6 356 349 344 346 344 337 332 325 331 339 283 246 280 286 263 287 286 280 267 260 259 256 234 219 230 206 204 193 202 195 198 203 203 206 209 209
309 313 298 308 316 15 313 350 56 28 16 20 7 356 350 347 341 333 332 328 322 318 341 333 280 260 265 269 283 287 282 272 260 256 251 219 214 215 198 200 208 193 188 193 199 203 205 214 213
297 301 301 301 345 328 284 57 49 25 20 13 4 356 351 344 335 340 336 339 329 311 332 350 343 300 276 272 281 290 282 284 264 264 244 218 200 202 213 200 197 205 192 198 200 205 207 208 205
319 305 293 294 320 317 82 48 19 23 23 12 1 354 348 343 344 341 341 346 338 318 322 333 333 330 300 282 281 278 285 285 261 259 238 224 206 194 193 180 182 191 189 199 206 211 200 186 176
330 265 312 302 317 46 131 133 49 2 3 4 3 352 354 354 342 340 345 347 346 329 329 331 336 333 316 294 281 275 269 262 276 224 173 188 176 177 182 193 203 195 191 192 205 208 221 184 189
311 297 311 302 315 157 155 267 7 349 351 359 354 357 352 347 343 343 348 352 355 360 1 8 356 347 328 304 291 271 247 238 239 195 173 161 172 183 195 184 177 186 187 200 207 212 220 227 194
252 316 294 282 272 9 146 109 343 357 345 348 350 347 345 343 343 344 349 357 2 10 17 18 9 1 339 325 302 267 237 243 245 139 128 129 140 152 164 176 175 172 179 166 172 186 189 196 157
326 343 359 274 80 24 299 122 323 2 334 336 339 341 342 342 342 346 353 4 9 16 20 19 17 7 359 354 344 197 198 125 129 114 114 111 112 118 135 147 149 152 148 142 135 136 131 129 124
359 23 354 354 6 228 283 2 262 329 344 344 334 334 342 342 344 348 356 2 8 15 17 20 19 16 19 25 47 92 111 116 101 92 94 94 102 101 105 119 119 122 124 126 124 114 107 105 100
352 86 135 264 319 288 354 343 275 186 14 0 349 334 343 344 346 351 356 1 8 17 21 23 25 24 29 35 43 79 99 92 87 91 91 85 88 93 103 107 112 115 115 114 113 107 101 98 96
332 6 312 220 197 339 252 169 127 333 346 353 351 351 347 346 348 353 357 2 7 15 23 27 36 39 37 42 47 68 86 88 87 87 89 88 91 95 98 99 103 103 103 103 101 99 97 95 91
80 328 189 0 334 308 308 303 252 335 336 345 344 345 345 346 347 350 358 7 13 21 25 32 42 50 47 53 55 65 81 87 87 88 86 88 91 92 96 97 99 99 97 97 95 92 92 90 85
11 12 355 283 192 308 317 292 205 290 318 331 330 340 341 340 345 349 357 11 21 31 35 39 43 51 52 58 60 69 82 87 86 85 87 88 92 93 93 93 95 94 92 92 94 91 90 91 90
123 175 158 350 335 300 242 289 297 247 335 341 336 340 345 346 342 351 358 21 32 35 40 44 48 53 57 63 60 68 83 87 83 83 85 89 90 92 92 92 93 95 94 93 94 94 89 87 82